Regional Weather Roundup
Issued by NWS Newport/Morehead, NC

Current Version | Previous Version | Graphics & Text | Print | Product List | Glossary Off
Versions: 1 2 3 4 5 6 7 8 9 10 11 12 13 14 15 16 17 18 19 20 21 22 23 24 25 26 27 28 29 30 31 32 33 34 35 36 37 38 39 40 41 42 43 44 45 46 47 48 49 50

000
ASUS42 KMHX 090424
RWRMHX
WEATHER ROUNDUP FOR EASTERN NORTH CAROLINA
NATIONAL WEATHER SERVICE NEWPORT/MOREHEAD CITY NC
1100 PM EST THU DEC 08 2016

NOTE: "FAIR" INDICATES FEW OR NO CLOUDS BELOW 12,000 FEET
WITH NO SIGNIFICANT WEATHER AND/OR OBSTRUCTIONS TO VISIBILITY

NCZ015>017-031-032-045>047-102-103-090500-
NORTH COAST

CITY           SKY/WX    TMP DP  RH WIND       PRES   REMARKS
EDENTON        PTCLDY    45  27  49 NW9       30.18R
ELIZABETH CITY CLOUDY    39  27  62 W10       30.16R
KITTY HAWK     CLOUDY    44  30  57 NW8       30.13S
MANTEO         MOCLDY    45  27  49 N12G20    30.16R

$$

NCZ045>047-081-094-103-104-090500-
CENTRAL COAST

CITY           SKY/WX    TMP DP  RH WIND       PRES   REMARKS
FRISCO         CLOUDY    47  26  44 NW15G23   30.15S

$$

NCZ095-097-098-100-101-090500-
SOUTHERN COAST

CITY           SKY/WX    TMP DP  RH WIND       PRES   REMARKS
BEAUFORT       CLOUDY    47  29  49 NW10      30.19R
CEDAR ISLAND   NOT AVBL
JACKSONVILLE   MOCLDY    43  33  68 W5        30.21R
PINEY ISLAND   CLOUDY   N/A N/A N/A NW9       30.18S
WILMINGTON     MOCLDY    42  29  59 NW5       30.22S


$$

NCZ011>013-027>030-043-044-078>080-089-090>093-098-090500-
COASTAL PLAIN

CITY           SKY/WX    TMP DP  RH WIND       PRES   REMARKS
AHOSKIE        PTCLDY    34  26  70 CALM      30.19R
CLINTON        CLOUDY    41  33  73 CALM      30.23R
ELIZABETHTOWN  CLOUDY    44  28  54 NW3       30.22S
GOLDSBORO      CLOUDY    42  24  47 W6        30.20R
GREENVILLE     CLOUDY    41  27  56 CALM      30.21R
HAVELOCK       MOCLDY    44  26  49 W6        30.20S
KENANSVILLE    CLOUDY    43  27  52 W3        30.22R
KINSTON        CLOUDY    39  29  68 CALM      30.22R
NEW BERN       CLOUDY    44  26  49 W6        30.20F
RICHLANDS      MOCLDY    38  36  92 CALM      30.22R
ROCKY MOUNT    PTCLDY    39  22  50 W3        30.21R
WASHINGTON     CLOUDY    40  26  55 CALM      30.19S
WHITEVILLE     CLOUDY    41  36  81 CALM      30.23S

$$

AMZ130-135-150-152-154-156-158-170-250-252-270-ANZ085-086-088-633-658-670-090500-
MARINE OBSERVATIONS

STATION/POSITION TIME  TEMP    WIND        PRES    WAVE   SWELL
                       AIR SEA DIR/SP/G            HT/PER HT/PER
                 (UTC) (F)     (DEG/KT/KT) (MB)    (FT/S) (FT/S)
CHESAPEAKE LIGHT NOT AVBL
64 E VA BEACH    0350   50 58  320/ 21/ 25 1018.8    5/ 5   2/ 8
DUCK             0400   44 53  300/ 11/ 15 1020.1
2 E DUCK         NOT AVBL
OREGON INLET     0400   46 54  310/ 14/ 17 1020.5
13E OREGON INLT  NOT AVBL
HATTERAS CG      0400   48 59  320/ 22/ 25 1020.5
DIAMOND BUOY     0350   51 77  330/ 21/ 29 1020.2    5/ 5   2/ 9
CAPE LOOKOUT     0400   48     320/ 15/ 19 1021.6
BEAUFORT LAB     0400   46 54  330/  7/ 11 1021.0
30 SE NEW RVR IN 0408   53 69  350/ 19/ 27 1022.0
30 SE NEW RVR IN NOT AVBL
27 SE WRIGHTSVLE 0408   52 67  350/ 16/ 23 1022.1
5 SE WRIGHTSVLE  0408   48 61  340/ 17/ 25 1022.5
225 S CAPE HAT   0350   71 74  340/ 16/ 19 1017.4    5/10   3/10
41 SE CHARLESTON 0350   58 74  360/ 19/ 23 1022.0    5/ 5

$$



USA.gov is the U.S. government's official web portal to all federal, state and local government web resources and services.